This demonstration page uses our WeatherBlox Daily Observations layout. Learn more.

Left ArrowRight Arrow

Hourly Observations for July 20, 2018

Temp ( °F °C ) Dew Point ( °F °C ) Humidity (%) Winds ( mph kmh ) Pressure ( in mb ) Visibility ( mi km ) Precip ( " mm )
12:16 am 00:16 Clear 70 21 64 18 83 83 SSE 6 9 29.88 1012 10 16.0934 N/A
12:37 am 00:37 Clear 70 21 64 18 83 83 SSE 5 7 29.88 1012 10 16.0934 N/A
12:56 am 00:56 Clear 70 21 64 18 83 83 S 6 9 29.88 1012 10 16.0934 N/A
1:16 am 01:16 Clear 70 21 64 18 83 83 S 5 7 29.88 1012 10 16.0934 N/A
1:37 am 01:37 Partly Cloudy 70 21 64 18 83 83 S 3 6 29.88 1012 10 16.0934 N/A
1:56 am 01:56 Partly Cloudy 68 20 66 19 94 94 S 3 6 29.88 1012 10 16.0934 N/A
2:17 am 02:17 Partly Cloudy 68 20 66 19 94 94 SSE 5 7 29.88 1012 10 16.0934 N/A
2:36 am 02:36 Partly Cloudy 70 21 64 18 83 83 SSE 6 9 29.88 1012 10 16.0934 N/A
2:56 am 02:56 Cloudy 70 21 64 18 83 83 SSE 7 11 29.85 1011 10 16.0934 N/A
3:17 am 03:17 Partly Cloudy 70 21 64 18 83 83 SSE 7 11 29.85 1011 10 16.0934 N/A
3:36 am 03:36 Mostly Cloudy 70 21 64 18 83 83 SSE 9 15 29.85 1011 10 16.0934 N/A
3:57 am 03:57 Cloudy 70 21 64 18 83 83 SSE 8 13 29.85 1011 10 16.0934 N/A
4:16 am 04:16 Cloudy 70 21 64 18 83 83 SSE 9 15 29.85 1011 10 16.0934 N/A
4:37 am 04:37 Cloudy 68 20 66 19 94 94 SSE 10 17 29.85 1011 10 16.0934 N/A
4:56 am 04:56 Cloudy 68 20 66 19 94 94 SSE 13 20 29.85 1011 10 16.0934 N/A
5:17 am 05:17 Mostly Cloudy 68 20 66 19 94 94 SSE 12 19 29.83 1010 10 16.0934 N/A
5:36 am 05:36 Partly Cloudy 66 19 66 19 100 100 SSE 12 19 29.8 1009 10 16.0934 N/A
5:57 am 05:57 Partly Cloudy 66 19 66 19 100 100 SSE 17 28 29.85 1011 10 16.0934 N/A
6:17 am 06:17 Clear 66 19 66 19 100 100 SSE 15 24 29.8 1009 10 16.0934 N/A
6:36 am 06:36 Sunny 66 19 66 19 100 100 SSE 12 19 29.8 1009 10 16.0934 N/A
6:57 am 06:57 Sunny 66 19 66 19 100 100 SSE 9 15 29.85 1011 10 16.0934 N/A
7:16 am 07:16 Sunny 66 19 66 19 100 100 SSW 8 13 29.88 1012 10 16.0934 N/A
7:36 am 07:36 Sunny 66 19 66 19 100 100 SSW 8 13 29.88 1012 10 16.0934 N/A
7:57 am 07:57 Sunny 66 19 66 19 100 100 S 7 11 29.88 1012 10 16.0934 N/A
8:16 am 08:16 Sunny 68 20 68 20 100 100 S 8 13 29.85 1011 10 16.0934 N/A
8:37 am 08:37 Partly Cloudy 68 20 68 20 100 100 S 10 17 29.85 1011 10 16.0934 N/A
8:56 am 08:56 Partly Cloudy 70 21 70 21 100 100 S 13 20 29.85 1011 10 16.0934 N/A
9:16 am 09:16 Partly Cloudy 70 21 70 21 100 100 S 12 19 29.85 1011 10 16.0934 N/A
9:37 am 09:37 Mostly Cloudy 70 21 70 21 100 100 S 10 17 29.83 1010 10 16.0934 N/A
9:56 am 09:56 Mostly Cloudy 70 21 70 21 100 100 SSE 13 20 29.83 1010 10 16.0934 N/A
10:17 am 10:17 Mostly Cloudy 73 23 72 22 94 94 S 15 24 29.8 1009 10 16.0934 N/A
10:36 am 10:36 Cloudy 72 22 70 21 94 94 S 13 20 29.8 1009 10 16.0934 N/A
10:56 am 10:56 Cloudy 72 22 70 21 94 94 S 14 22 29.8 1009 10 16.0934 N/A
11:17 am 11:17 Cloudy 73 23 72 22 94 94 S 12 19 29.8 1009 10 16.0934 N/A
11:36 am 11:36 Cloudy 73 23 72 22 94 94 S 9 15 29.8 1009 10 16.0934 N/A
11:57 am 11:57 Cloudy 75 24 73 23 94 94 S 12 19 29.8 1009 10 16.0934 N/A
12:16 pm 12:16 Cloudy 77 25 73 23 89 89 S 12 19 29.8 1009 10 16.0934 N/A
12:36 pm 12:36 Cloudy 77 25 75 24 94 94 S 12 19 29.8 1009 10 16.0934 N/A
12:57 pm 12:57 Cloudy 77 25 75 24 94 94 S 10 17 29.77 1008 10 16.0934 N/A
1:16 pm 13:16 Cloudy 81 27 77 25 89 89 S 15 24 29.77 1008 10 16.0934 N/A
1:37 pm 13:37 Mostly Cloudy 81 27 77 25 89 89 S 14 22 29.77 1008 10 16.0934 N/A
1:56 pm 13:56 Mostly Cloudy 81 27 77 25 89 89 S 12 19 29.74 1007 10 16.0934 N/A
2:16 pm 14:16 Partly Cloudy 82 28 79 26 89 89 SSW 12 19 29.74 1007 10 16.0934 N/A
2:37 pm 14:37 Mostly Cloudy 82 28 79 26 89 89 SSW 13 20 29.68 1005 10 16.0934 N/A
2:56 pm 14:56 Mostly Cloudy 84 29 79 26 84 84 SSW 10 17 29.68 1005 10 16.0934 N/A
3:17 pm 15:17 Partly Cloudy 86 30 77 25 75 75 SSW 14 22 29.65 1004 10 16.0934 N/A
3:36 pm 15:36 Partly Cloudy 81 27 77 25 89 89 S 12 19 29.68 1005 10 16.0934 N/A
3:56 pm 15:56 Partly Cloudy 81 27 75 24 84 84 S 13 20 29.68 1005 10 16.0934 N/A
4:17 pm 16:17 Partly Cloudy 84 29 70 21 62 62 WSW 18 30 29.65 1004 10 16.0934 N/A
4:36 pm 16:36 Partly Cloudy 86 30 70 21 59 59 SW 15 24 29.65 1004 10 16.0934 N/A
4:57 pm 16:57 Mostly Cloudy 84 29 68 20 58 58 W 14 22 29.65 1004 10 16.0934 N/A
5:16 pm 17:16 Mostly Cloudy 86 30 70 21 59 59 WNW 17 28 29.65 1004 10 16.0934 N/A
5:42 pm 17:42 Mostly Cloudy 84 29 70 21 62 62 WNW 17 28 29.65 1004 10 16.0934 N/A
6:04 pm 18:04 Mostly Cloudy 77 25 68 20 74 74 W 5 7 29.68 1005 10 16.0934 N/A
6:42 pm 18:42 Mostly Cloudy 75 24 72 22 89 89 WNW 14 22 29.71 1006 10 16.0934 N/A
7:03 pm 19:03 Partly Cloudy 79 26 73 23 84 84 WNW 12 19 29.71 1006 10 16.0934 N/A
7:23 pm 19:23 Partly Cloudy 77 25 72 22 83 83 W 13 20 29.71 1006 10 16.0934 N/A
7:44 pm 19:44 Cloudy 75 24 72 22 89 89 W 7 11 29.74 1007 10 16.0934 N/A
8:02 pm 20:02 Cloudy 75 24 73 23 94 94 N 8 13 29.74 1007 10 16.0934 N/A
8:22 pm 20:22 Mostly Cloudy 75 24 72 22 89 89 N N/A 29.74 1007 10 16.0934 N/A
8:42 pm 20:42 Mostly Cloudy 75 24 72 22 89 89 N N/A 29.74 1007 10 16.0934 N/A
9:06 pm 21:06 Sunny 75 24 68 20 78 78 W 7 11 29.77 1008 10 16.0934 N/A
9:22 pm 21:22 Clear 75 24 68 20 78 78 W 10 17 29.74 1007 10 16.0934 N/A
9:43 pm 21:43 Clear 73 23 68 20 83 83 W 6 9 29.74 1007 10 16.0934 N/A
10:02 pm 22:02 Clear 70 21 70 21 100 100 SSE 9 15 29.74 1007 10 16.0934 N/A
10:22 pm 22:22 Clear 68 20 68 20 100 100 SSE 8 13 29.77 1008 10 16.0934 N/A
10:45 pm 22:45 Clear 68 20 68 20 100 100 SSE 8 13 29.77 1008 10 16.0934 N/A
11:06 pm 23:06 Partly Cloudy 66 19 66 19 100 100 SSE 6 9 29.77 1008 10 16.0934 N/A
11:22 pm 23:22 Mostly Cloudy 66 19 66 19 100 100 SSE 7 11 29.74 1007 10 16.0934 N/A
11:45 pm 23:45 Mostly Cloudy 66 19 66 19 100 100 SSE 5 7 29.77 1008 10 16.0934 N/A

Powered by AerisWeather